| time (UTC) | temp F | wind direction | speed MPH | gust MPH | rain 1hr in | rain 24hr in | rain mn in | humidity % | barometer mb |
| 20260507185345 | 86 | 308 | 6.0 | 10.0 | 0.00 | 0.00 | 0.00 | 80 | 1017.2 |
| 20260507184319 | 86 | 263 | 4.0 | 10.0 | 0.00 | 0.00 | 0.00 | 82 | 1017.3 |
| 20260507183335 | 86 | 268 | 5.0 | 9.0 | 0.00 | 0.00 | 0.00 | 80 | 1017.4 |
| 20260507182330 | 87 | 279 | 3.0 | 9.0 | 0.00 | 0.00 | 0.00 | 80 | 1017.4 |
| 20260507181329 | 86 | 284 | 6.0 | 10.0 | 0.00 | 0.00 | 0.00 | 80 | 1017.5 |
| 20260507180355 | 86 | 253 | 5.0 | 11.0 | 0.00 | 0.00 | 0.00 | 81 | 1017.7 |
| 20260507175317 | 87 | 309 | 5.0 | 12.0 | 0.00 | 0.00 | 0.00 | 80 | 1017.7 |
| 20260507174332 | 87 | 287 | 3.0 | 9.0 | 0.00 | 0.00 | 0.00 | 80 | 1017.9 |
| 20260507173332 | 87 | 326 | 4.0 | 10.0 | 0.00 | 0.00 | 0.00 | 80 | 1018.1 |
| 20260507172329 | 86 | 312 | 5.0 | 9.0 | 0.00 | 0.00 | 0.00 | 80 | 1018.2 |
| 20260507171324 | 87 | 246 | 4.0 | 9.0 | 0.00 | 0.00 | 0.00 | 81 | 1018.3 |
| 20260507170334 | 87 | 268 | 5.0 | 9.0 | 0.00 | 0.00 | 0.00 | 80 | 1018.4 |
| 20260507165336 | 87 | 262 | 3.0 | 8.0 | 0.00 | 0.00 | 0.00 | 80 | 1018.4 |
| 20260507164332 | 87 | 255 | 4.0 | 8.0 | 0.00 | 0.00 | 0.00 | 79 | 1018.5 |
| 20260507163331 | 86 | 222 | 4.0 | 9.0 | 0.00 | 0.00 | 0.00 | 80 | 1018.6 |
| 20260507162328 | 85 | 359 | 3.0 | 9.0 | 0.00 | 0.00 | 0.00 | 81 | 1018.8 |
| 20260507161324 | 86 | 238 | 4.0 | 8.0 | 0.00 | 0.00 | 0.00 | 82 | 1018.8 |
| 20260507160350 | 86 | 243 | 6.0 | 9.0 | 0.00 | 0.00 | 0.00 | 82 | 1018.8 |
| 20260507155336 | 86 | 352 | 2.0 | 8.0 | 0.00 | 0.00 | 0.00 | 83 | 1018.8 |
| 20260507154330 | 85 | 318 | 3.0 | 8.0 | 0.00 | 0.00 | 0.00 | 82 | 1018.8 |
| 20260507153326 | 85 | 280 | 3.0 | 8.0 | 0.00 | 0.00 | 0.00 | 84 | 1018.8 |
| 20260507152343 | 86 | 258 | 4.0 | 9.0 | 0.00 | 0.00 | 0.00 | 81 | 1018.8 |
| 20260507151322 | 86 | 322 | 3.0 | 7.0 | 0.00 | 0.00 | 0.00 | 82 | 1019.0 |
| 20260507150347 | 85 | 287 | 4.0 | 8.0 | 0.00 | 0.00 | 0.00 | 82 | 1019.0 |
| 20260507145330 | 85 | 309 | 4.0 | 9.0 | 0.00 | 0.00 | 0.00 | 83 | 1018.9 |
| 20260507144329 | 85 | 255 | 3.0 | 8.0 | 0.00 | 0.00 | 0.00 | 82 | 1018.9 |
| 20260507143325 | 85 | 315 | 4.0 | 8.0 | 0.00 | 0.00 | 0.00 | 82 | 1018.7 |
| 20260507142322 | 85 | 275 | 4.0 | 8.0 | 0.00 | 0.00 | 0.00 | 82 | 1018.6 |
| 20260507141321 | 85 | 269 | 4.0 | 8.0 | 0.00 | 0.00 | 0.00 | 83 | 1018.7 |
| 20260507140347 | 85 | 263 | 4.0 | 8.0 | 0.00 | 0.00 | 0.00 | 83 | 1018.7 |
| 20260507135331 | 85 | 274 | 2.0 | 9.0 | 0.00 | 0.00 | 0.00 | 81 | 1018.7 |
| 20260507134326 | 85 | 360 | 1.0 | 8.0 | 0.00 | 0.00 | 0.00 | 81 | 1018.6 |
| 20260507133326 | 85 | 247 | 4.0 | 6.0 | 0.00 | 0.00 | 0.00 | 82 | 1018.5 |
| 20260507132322 | 85 | 268 | 4.0 | 8.0 | 0.00 | 0.00 | 0.00 | 82 | 1018.4 |
| 20260507131318 | 85 | 300 | 0.0 | 7.0 | 0.00 | 0.00 | 0.00 | 82 | 1018.4 |
| 20260507130404 | 84 | 293 | 2.0 | 7.0 | 0.00 | 0.00 | 0.00 | 83 | 1018.2 |
| 20260507125330 | 84 | 283 | 3.0 | 8.0 | 0.00 | 0.00 | 0.00 | 83 | 1018.2 |
| 20260507124326 | 84 | 295 | 2.0 | 8.0 | 0.00 | 0.00 | 0.00 | 84 | 1018.1 |
| 20260507123343 | 83 | 350 | 3.0 | 7.0 | 0.00 | 0.00 | 0.00 | 85 | 1018.2 |
| 20260507122322 | 83 | 295 | 4.0 | 6.0 | 0.00 | 0.00 | 0.00 | 85 | 1018.0 |
| 20260507121317 | 83 | 288 | 4.0 | 7.0 | 0.00 | 0.00 | 0.00 | 84 | 1018.0 |
| 20260507120344 | 83 | 298 | 2.0 | 8.0 | 0.00 | 0.00 | 0.00 | 86 | 1018.0 |
| 20260507115346 | 82 | 273 | 0.0 | 5.0 | 0.00 | 0.00 | 0.00 | 87 | 1018.0 |
| 20260507114325 | 82 | 299 | 2.0 | 6.0 | 0.00 | 0.00 | 0.00 | 87 | 1018.0 |
| 20260507113321 | 81 | 288 | 2.0 | 8.0 | 0.00 | 0.00 | 0.00 | 88 | 1017.8 |
| 20260507112318 | 80 | 264 | 2.0 | 8.0 | 0.00 | 0.00 | 0.00 | 88 | 1017.4 |
| 20260507111317 | 80 | 276 | 5.0 | 9.0 | 0.00 | 0.00 | 0.00 | 88 | 1017.4 |
| 20260507110344 | 80 | 330 | 3.0 | 10.0 | 0.00 | 0.00 | 0.00 | 88 | 1017.3 |
| 20260507105326 | 80 | 250 | 4.0 | 9.0 | 0.00 | 0.00 | 0.00 | 88 | 1017.2 |
| 20260507104322 | 80 | 300 | 5.0 | 9.0 | 0.00 | 0.00 | 0.00 | 88 | 1017.0 |
| 20260507103321 | 80 | 324 | 5.0 | 10.0 | 0.00 | 0.00 | 0.00 | 88 | 1017.0 |
| 20260507102318 | 80 | 323 | 4.0 | 11.0 | 0.00 | 0.00 | 0.00 | 88 | 1016.8 |
| 20260507101333 | 80 | 247 | 4.0 | 12.0 | 0.00 | 0.00 | 0.00 | 88 | 1016.6 |
| 20260507100343 | 80 | 270 | 5.0 | 10.0 | 0.00 | 0.00 | 0.00 | 87 | 1016.6 |
| 20260507095326 | 80 | 263 | 7.0 | 12.0 | 0.00 | 0.00 | 0.00 | 87 | 1016.6 |
| 20260507094322 | 80 | 274 | 4.0 | 12.0 | 0.00 | 0.00 | 0.00 | 87 | 1016.6 |
| 20260507093338 | 80 | 271 | 6.0 | 11.0 | 0.00 | 0.00 | 0.00 | 87 | 1016.4 |
| 20260507092336 | 80 | 275 | 6.0 | 13.0 | 0.00 | 0.00 | 0.00 | 87 | 1016.3 |
| 20260507091331 | 80 | 265 | 5.0 | 11.0 | 0.00 | 0.00 | 0.00 | 87 | 1016.4 |
| 20260507090357 | 80 | 263 | 4.0 | 11.0 | 0.00 | 0.00 | 0.00 | 87 | 1016.3 |
| 20260507085319 | 80 | 262 | 8.0 | 13.0 | 0.00 | 0.00 | 0.00 | 86 | 1016.3 |
| 20260507084317 | 80 | 265 | 8.0 | 14.0 | 0.00 | 0.00 | 0.00 | 86 | 1016.2 |
| 20260507083332 | 80 | 253 | 5.0 | 13.0 | 0.00 | 0.00 | 0.00 | 86 | 1016.3 |
| 20260507082327 | 80 | 282 | 5.0 | 15.0 | 0.00 | 0.00 | 0.00 | 86 | 1016.2 |
| 20260507081322 | 80 | 284 | 5.0 | 15.0 | 0.00 | 0.00 | 0.00 | 87 | 1016.3 |
| 20260507080333 | 80 | 254 | 6.0 | 14.0 | 0.00 | 0.00 | 0.00 | 85 | 1016.4 |
| 20260507075335 | 80 | 253 | 7.0 | 14.0 | 0.00 | 0.00 | 0.00 | 85 | 1016.5 |
| 20260507074330 | 80 | 261 | 8.0 | 15.0 | 0.00 | 0.00 | 0.00 | 85 | 1016.5 |
| 20260507073330 | 80 | 279 | 8.0 | 13.0 | 0.00 | 0.00 | 0.00 | 86 | 1016.4 |
| 20260507072326 | 80 | 254 | 7.0 | 12.0 | 0.00 | 0.00 | 0.00 | 86 | 1016.5 |
| 20260507071341 | 80 | 255 | 8.0 | 14.0 | 0.00 | 0.00 | 0.00 | 86 | 1016.8 |
| 20260507070407 | 80 | 282 | 8.0 | 13.0 | 0.00 | 0.00 | 0.00 | 86 | 1017.0 |
| 20260507065332 | 80 | 261 | 7.0 | 14.0 | 0.00 | 0.00 | 0.00 | 86 | 1017.0 |
| 20260507064328 | 80 | 270 | 6.0 | 12.0 | 0.00 | 0.00 | 0.00 | 86 | 1017.1 |
| 20260507063323 | 80 | 263 | 7.0 | 12.0 | 0.00 | 0.00 | 0.00 | 86 | 1017.2 |
| 20260507062318 | 80 | 274 | 8.0 | 13.0 | 0.00 | 0.00 | 0.00 | 84 | 1017.4 |
| 20260507061357 | 80 | 258 | 7.0 | 13.0 | 0.00 | 0.00 | 0.00 | 86 | 1017.4 |
| 20260507060342 | 80 | 251 | 10.0 | 15.0 | 0.00 | 0.00 | 0.00 | 85 | 1017.2 |
| 20260507055324 | 80 | 267 | 9.0 | 14.0 | 0.00 | 0.00 | 0.00 | 86 | 1017.5 |
| 20260507054339 | 80 | 264 | 5.0 | 12.0 | 0.00 | 0.00 | 0.00 | 85 | 1017.6 |
| 20260507053336 | 80 | 292 | 6.0 | 14.0 | 0.00 | 0.00 | 0.00 | 85 | 1017.8 |
| 20260507052332 | 80 | 259 | 8.0 | 13.0 | 0.00 | 0.00 | 0.00 | 85 | 1017.9 |
| 20260507051327 | 80 | 219 | 6.0 | 12.0 | 0.00 | 0.00 | 0.00 | 84 | 1017.9 |
| 20260507050337 | 80 | 243 | 6.0 | 12.0 | 0.00 | 0.00 | 0.00 | 85 | 1018.0 |
| 20260507045339 | 80 | 255 | 7.0 | 12.0 | 0.00 | 0.00 | 0.00 | 85 | 1018.1 |
| 20260507044333 | 80 | 248 | 6.0 | 11.0 | 0.00 | 0.00 | 0.00 | 84 | 1018.2 |
| 20260507043329 | 80 | 254 | 8.0 | 12.0 | 0.00 | 0.00 | 0.00 | 84 | 1018.3 |
| 20260507042329 | 80 | 263 | 7.0 | 12.0 | 0.00 | 0.00 | 0.00 | 84 | 1018.3 |
| 20260507041324 | 80 | 262 | 7.0 | 11.0 | 0.00 | 0.00 | 0.00 | 85 | 1018.4 |
| 20260507040331 | 80 | 227 | 7.0 | 12.0 | 0.00 | 0.00 | 0.00 | 85 | 1018.6 |
| 20260507035354 | 81 | 288 | 7.0 | 13.0 | 0.00 | 0.00 | 0.00 | 85 | 1018.5 |
| 20260507034333 | 81 | 276 | 9.0 | 14.0 | 0.00 | 0.00 | 0.00 | 85 | 1018.4 |
| 20260507033328 | 81 | 237 | 7.0 | 11.0 | 0.00 | 0.00 | 0.00 | 85 | 1018.4 |
| 20260507032439 | 81 | 236 | 7.0 | 12.0 | 0.00 | 0.00 | 0.00 | 85 | 1018.4 |
| 20260507031325 | 81 | 247 | 6.0 | 10.0 | 0.00 | 0.00 | 0.00 | 85 | 1018.5 |
| 20260507030332 | 81 | 237 | 5.0 | 11.0 | 0.00 | 0.00 | 0.00 | 85 | 1018.3 |
| 20260507025334 | 81 | 212 | 7.0 | 11.0 | 0.00 | 0.00 | 0.00 | 85 | 1018.2 |
| 20260507024329 | 81 | 224 | 5.0 | 13.0 | 0.00 | 0.00 | 0.00 | 85 | 1018.0 |
| 20260507023331 | 81 | 255 | 4.0 | 11.0 | 0.00 | 0.00 | 0.00 | 85 | 1018.0 |
| 20260507022328 | 81 | 238 | 5.0 | 11.0 | 0.00 | 0.00 | 0.00 | 85 | 1018.0 |
| 20260507021322 | 81 | 217 | 6.0 | 12.0 | 0.00 | 0.00 | 0.00 | 85 | 1018.0 |
| 20260507020333 | 81 | 222 | 5.0 | 10.0 | 0.00 | 0.00 | 0.00 | 85 | 1017.9 |
| 20260507015355 | 81 | 239 | 5.0 | 11.0 | 0.00 | 0.00 | 0.00 | 85 | 1017.7 |
| 20260507014329 | 81 | 220 | 5.0 | 10.0 | 0.00 | 0.00 | 0.00 | 85 | 1017.8 |
| 20260507013325 | 81 | 232 | 5.0 | 10.0 | 0.00 | 0.00 | 0.00 | 85 | 1017.9 |
| 20260507012326 | 81 | 268 | 2.0 | 9.0 | 0.00 | 0.00 | 0.00 | 85 | 1017.7 |
| 20260507011321 | 81 | 241 | 4.0 | 8.0 | 0.00 | 0.00 | 0.00 | 84 | 1017.7 |
| 20260507010348 | 81 | 265 | 4.0 | 8.0 | 0.00 | 0.00 | 0.00 | 85 | 1017.7 |
| 20260507005335 | 81 | 234 | 4.0 | 8.0 | 0.00 | 0.00 | 0.00 | 84 | 1017.8 |
| 20260507004330 | 81 | 236 | 4.0 | 8.0 | 0.00 | 0.00 | 0.00 | 84 | 1017.9 |
| 20260507003326 | 81 | 251 | 3.0 | 7.0 | 0.00 | 0.00 | 0.00 | 84 | 1017.9 |
| 20260507002326 | 81 | 274 | 3.0 | 8.0 | 0.00 | 0.00 | 0.00 | 84 | 1017.6 |
| 20260507001322 | 82 | 273 | 4.0 | 9.0 | 0.00 | 0.00 | 0.00 | 84 | 1017.5 |
| 20260507000350 | 82 | 255 | 4.0 | 6.0 | 0.00 | 0.00 | 0.00 | 83 | 1017.6 |
| 20260506235330 | 82 | 292 | 2.0 | 8.0 | 0.00 | 0.00 | 0.00 | 83 | 1017.7 |
| 20260506234330 | 82 | 243 | 2.0 | 7.0 | 0.00 | 0.00 | 0.00 | 83 | 1017.6 |
| 20260506233325 | 83 | 246 | 3.0 | 8.0 | 0.00 | 0.00 | 0.00 | 82 | 1017.5 |
| 20260506232321 | 84 | 276 | 3.0 | 8.0 | 0.00 | 0.00 | 0.00 | 81 | 1017.5 |
| 20260506231320 | 84 | 270 | 2.0 | 9.0 | 0.00 | 0.00 | 0.00 | 81 | 1017.5 |
| 20260506230346 | 84 | 303 | 3.0 | 8.0 | 0.00 | 0.00 | 0.00 | 80 | 1017.4 |
| 20260506225329 | 84 | 285 | 3.0 | 8.0 | 0.00 | 0.00 | 0.00 | 80 | 1017.4 |
| 20260506224324 | 84 | 332 | 3.0 | 8.0 | 0.00 | 0.00 | 0.00 | 80 | 1017.3 |
| 20260506223324 | 84 | 254 | 4.0 | 8.0 | 0.00 | 0.00 | 0.00 | 79 | 1017.2 |
| 20260506222340 | 85 | 264 | 1.0 | 7.0 | 0.00 | 0.00 | 0.00 | 79 | 1017.1 |
| 20260506221335 | 85 | 278 | 1.0 | 8.0 | 0.00 | 0.00 | 0.00 | 80 | 1017.1 |
| 20260506220346 | 85 | 261 | 2.0 | 7.0 | 0.00 | 0.00 | 0.00 | 79 | 1017.0 |
| 20260506215329 | 85 | 286 | 1.0 | 8.0 | 0.00 | 0.00 | 0.00 | 79 | 1017.0 |
| 20260506214324 | 85 | 250 | 4.0 | 7.0 | 0.00 | 0.00 | 0.00 | 79 | 1017.0 |
| 20260506213320 | 85 | 315 | 5.0 | 8.0 | 0.00 | 0.00 | 0.00 | 79 | 1017.0 |
| 20260506212321 | 85 | 5 | 4.0 | 9.0 | 0.00 | 0.00 | 0.00 | 78 | 1017.0 |
| 20260506211336 | 85 | 268 | 3.0 | 10.0 | 0.00 | 0.00 | 0.00 | 79 | 1017.0 |
| 20260506210402 | 85 | 259 | 4.0 | 10.0 | 0.00 | 0.00 | 0.00 | 79 | 1017.1 |
| 20260506205344 | 85 | 274 | 4.0 | 9.0 | 0.00 | 0.00 | 0.00 | 79 | 1017.1 |
| 20260506204322 | 85 | 294 | 4.0 | 11.0 | 0.00 | 0.00 | 0.00 | 78 | 1017.1 |
| 20260506203318 | 85 | 278 | 2.0 | 10.0 | 0.00 | 0.00 | 0.00 | 78 | 1017.2 |
| 20260506202335 | 85 | 270 | 4.0 | 8.0 | 0.00 | 0.00 | 0.00 | 78 | 1017.4 |
| 20260506201334 | 85 | 265 | 5.0 | 10.0 | 0.00 | 0.00 | 0.00 | 77 | 1017.4 |
| 20260506200340 | 86 | 253 | 1.0 | 7.0 | 0.00 | 0.00 | 0.00 | 78 | 1017.5 |
| 20260506195323 | 85 | 284 | 3.0 | 8.0 | 0.00 | 0.00 | 0.00 | 79 | 1017.5 |
| 20260506194322 | 85 | 259 | 3.0 | 7.0 | 0.00 | 0.00 | 0.00 | 79 | 1017.7 |
| 20260506193338 | 86 | 263 | 3.0 | 8.0 | 0.00 | 0.00 | 0.00 | 78 | 1017.8 |
| 20260506192333 | 86 | 292 | 2.0 | 8.0 | 0.00 | 0.00 | 0.00 | 78 | 1018.0 |
| 20260506191328 | 85 | 251 | 5.0 | 9.0 | 0.00 | 0.00 | 0.00 | 78 | 1018.2 |
| 20260506190338 | 85 | 272 | 5.0 | 9.0 | 0.00 | 0.00 | 0.00 | 78 | 1018.1 |